Regional Weather Roundup
Issued by NWS

Home | Current Version | Previous Version | Text Only | Print | Product List | Glossary On
Versions: 1 2 3 4 5 6 7 8 9 10 11 12 13 14 15 16 17 18 19 20 21 22 23 24 25 26 27 28 29 30 31 32 33 34 35 36 37 38 39 40 41 42 43 44 45 46 47 48 49 50
000
ASUS44 KMEG 290510
RWRTN
TENNESSEE HOURLY STATE WEATHER ROUNDUP
NATIONAL WEATHER SERVICE MEMPHIS TN
1200 AM CDT WED JUN 29 2016

TNZ002-004-019-021-049-052-054-088>092-290600-
WEST TENNESSEE

CITY           SKY/WX    TMP DP  RH WIND       PRES   REMARKS
MEMPHIS INTL   CLEAR     79  63  57 NE3       30.03F
NWS MEMPHIS      N/A     70 N/A N/A MISG        N/A
JACKSON        CLEAR     70  68  93 CALM      30.03F
DYERSBURG      CLEAR     72  70  94 CALM      30.04S
UNION CITY     CLEAR     70  70 100 CALM      30.03S
PARIS          CLEAR     66  64  94 CALM      30.04F
LEXINGTON      CLEAR     72  70  94 CALM      30.03R
$$

TNZ008-025-027-028-033-062-065-066-290600-
NORTH MIDDLE TENNESSEE

CITY           SKY/WX    TMP DP  RH WIND       PRES   REMARKS
NASHVILLE      CLEAR     74  68  81 CALM      30.02F
CLARKSVILLE    CLEAR     72  65  78 N5        30.04R
SMYRNA         PTCLDY    72  69  90 CALM      30.02F
COOKEVILLE     CLEAR     70  68  94 CALM      30.03S
CROSSVILLE     CLEAR     72  64  76 NW3       30.06F
$$

TNZ061-075-076-078-094-096-097-290600-
SOUTH MIDDLE TENNESSEE

CITY           SKY/WX    TMP DP  RH WIND       PRES   REMARKS
FAYETTEVILLE   CLEAR     72  66  83 SE3       30.02S
TULLAHOMA      CLEAR     70  64  83 CALM      30.03F
WINCHESTER     CLEAR     70  66  88 CALM      30.03F
MCMINNVILLE    CLEAR     70  70 100 CALM      30.03F
COLUMBIA       CLEAR    N/A N/A N/A CALM      30.02S
SHELBYVILLE    CLEAR     72  70  94 CALM        N/A
$$

TNZ017-018-042-046-047-290600-
NORTHEAST TENNESSEE

CITY           SKY/WX    TMP DP  RH WIND       PRES   REMARKS
TRI CITIES     PTCLDY    64  61  90 NE3       30.01S
ELIZABETHTON   DRIZZLE   63  61  94 CALM      30.02F
$$

TNZ012-013-036-069-073-074-290600-
CENTRAL EAST TENNESSEE

CITY           SKY/WX    TMP DP  RH WIND       PRES   REMARKS
KNOXVILLE      PTCLDY    73  65  75 CALM      29.99S
OAK RIDGE      PTCLDY    74  64  71 CALM      30.01F
GATLINBURG     CLEAR     68  61  77 CALM      30.00S
MORRISTOWN     CLEAR     70  66  88 CALM      30.00F
$$

TNZ083-085-099-290600-
SOUTHEAST TENNESSEE

CITY           SKY/WX    TMP DP  RH WIND       PRES   REMARKS
CHATTANOOGA    CLEAR     77  64  64 CALM      30.00S
$$

SKY/WX REPORTED AS FAIR MEANS FEW OR NO CLOUDS BELOW
12 THOUSAND FEET.




USA.gov is the U.S. government's official web portal to all federal, state and local government web resources and services.